User: anonymous
Location: Caltech
(34.1382°N, 118.1253°W)
Time: 15:44:49
(UTC-07:00)
Language:

DELTA 2 R/B (1) - Orbit

View from above orbital plane
View from above orbital plane
View from above satellite
View from above satellite

Ground track
Ground track

The orbit data is extracted from the following two-line orbital elements,

1 27665U 03005C   14292.66307661  .00000125  00000-0  83553-4 0  1456
2 27665 039.5770 016.5321 0008038 073.8135 077.7477 14.28233113611985
Epoch (UTC): 19 October 2014 15:54:49
Eccentricity: 0.0008038
inclination: 39.5770°
perigee height: 792 km
apogee height: 803 km
right ascension of ascending node: 16.5321°
argument of perigee: 73.8135°
revolutions per day: 14.28233113
mean anomaly at epoch: 77.7477°
orbit number at epoch: 61198

The dashed part of the orbit path shows where the satellite is in the earth's shadow,  

DLR